Time,TemperatureF,DewpointF,PressureIn,WindDirection,WindDirectionDegrees,WindSpeedMPH,WindSpeedGustMPH,Humidity,HourlyPrecipIn,Conditions,Clouds,dailyrainin,SoftwareType,DateUTC
2013-10-02 00:01:00,54.0,52.5,29.89,North,358,0.0,2.0,95,0.00,,,0.00,meteohub,2013-10-02 04:01:00,
2013-10-02 00:02:00,54.0,52.5,29.89,North,358,1.0,2.0,95,0.00,,,0.00,meteohub,2013-10-02 04:02:00,
2013-10-02 00:03:00,54.0,52.5,29.89,North,358,1.0,2.0,95,0.00,,,0.00,meteohub,2013-10-02 04:03:00,
2013-10-02 00:05:00,54.0,52.5,29.89,North,358,0.0,2.0,95,0.00,,,0.00,meteohub,2013-10-02 04:05:00,
2013-10-02 00:10:00,53.8,52.3,29.89,North,358,1.0,2.0,95,0.00,,,0.00,meteohub,2013-10-02 04:10:00,
2013-10-02 00:15:00,53.6,52.2,29.89,North,358,0.0,2.0,95,0.00,,,0.00,meteohub,2013-10-02 04:15:00,
2013-10-02 00:20:00,53.6,52.2,29.89,North,358,1.0,2.0,95,0.00,,,0.00,meteohub,2013-10-02 04:20:00,
2013-10-02 00:25:00,53.4,52.0,29.89,East,97,0.0,2.0,95,0.00,,,0.00,meteohub,2013-10-02 04:25:00,
2013-10-02 00:30:00,53.4,52.0,29.89,East,97,0.0,2.0,95,0.00,,,0.00,meteohub,2013-10-02 04:30:00,
2013-10-02 00:35:00,53.2,52.2,29.89,NNW,338,0.0,4.0,96,0.00,,,0.00,meteohub,2013-10-02 04:35:00,
2013-10-02 00:40:00,53.2,52.2,29.88,NNW,338,0.0,4.0,96,0.00,,,0.00,meteohub,2013-10-02 04:40:00,
2013-10-02 00:45:00,53.2,52.2,29.89,NNW,338,0.0,4.0,96,0.00,,,0.00,meteohub,2013-10-02 04:45:00,
2013-10-02 00:50:00,53.2,52.2,29.89,NNW,338,0.0,2.0,96,0.00,,,0.00,meteohub,2013-10-02 04:50:00,
2013-10-02 00:55:00,53.2,52.2,29.88,NNW,338,1.0,2.0,96,0.00,,,0.00,meteohub,2013-10-02 04:55:00,
2013-10-02 01:00:00,53.2,52.2,29.88,NNW,338,0.0,3.0,96,0.00,,,0.00,meteohub,2013-10-02 05:00:00,
2013-10-02 01:05:00,53.2,52.2,29.89,NNW,338,0.0,3.0,96,0.00,,,0.00,meteohub,2013-10-02 05:05:00,
2013-10-02 01:10:00,53.2,52.2,29.89,NNW,338,0.0,3.0,96,0.00,,,0.00,meteohub,2013-10-02 05:10:00,
2013-10-02 01:15:00,53.2,52.2,29.88,East,97,1.0,3.0,96,0.00,,,0.00,meteohub,2013-10-02 05:15:00,
2013-10-02 01:20:00,53.2,52.2,29.88,East,97,0.0,3.0,96,0.00,,,0.00,meteohub,2013-10-02 05:20:00,
2013-10-02 01:25:00,53.2,52.2,29.88,East,97,0.0,2.0,96,0.00,,,0.00,meteohub,2013-10-02 05:25:00,
2013-10-02 01:30:00,53.2,52.2,29.88,East,97,0.0,2.0,96,0.00,,,0.00,meteohub,2013-10-02 05:30:00,
2013-10-02 01:35:00,53.2,52.2,29.88,East,97,0.0,1.0,96,0.00,,,0.00,meteohub,2013-10-02 05:35:00,
2013-10-02 01:40:00,53.4,52.3,29.88,East,97,0.0,2.0,96,0.00,,,0.00,meteohub,2013-10-02 05:40:00,
2013-10-02 01:45:00,53.4,52.3,29.88,East,97,1.0,2.0,96,0.00,,,0.00,meteohub,2013-10-02 05:45:00,
2013-10-02 01:50:00,53.4,52.3,29.88,East,97,0.0,2.0,96,0.00,,,0.00,meteohub,2013-10-02 05:50:00,
2013-10-02 01:55:00,53.4,52.3,29.88,East,98,1.0,2.0,96,0.00,,,0.00,meteohub,2013-10-02 05:55:00,
2013-10-02 02:00:00,53.2,52.2,29.88,ESE,109,0.0,2.0,96,0.00,,,0.00,meteohub,2013-10-02 06:00:00,
2013-10-02 02:05:00,53.2,52.2,29.88,ESE,109,1.0,2.0,96,0.00,,,0.00,meteohub,2013-10-02 06:05:00,
2013-10-02 02:10:00,53.4,52.3,29.88,North,355,0.0,2.0,96,0.00,,,0.00,meteohub,2013-10-02 06:10:00,
2013-10-02 02:15:00,53.4,52.3,29.89,East,87,0.0,3.0,96,0.00,,,0.00,meteohub,2013-10-02 06:15:00,
2013-10-02 02:20:00,53.2,51.8,29.89,SW,233,0.0,3.0,95,0.00,,,0.00,meteohub,2013-10-02 06:20:00,
2013-10-02 02:25:00,53.2,51.8,29.89,SSE,158,0.0,2.0,95,0.00,,,0.00,meteohub,2013-10-02 06:25:00,
2013-10-02 02:30:00,53.1,51.6,29.89,SSE,158,1.0,2.0,95,0.00,,,0.00,meteohub,2013-10-02 06:30:00,
2013-10-02 02:35:00,53.1,51.6,29.88,SSE,158,1.0,2.0,95,0.00,,,0.00,meteohub,2013-10-02 06:35:00,
2013-10-02 02:40:00,52.9,51.4,29.88,SSE,158,0.0,2.0,95,0.00,,,0.00,meteohub,2013-10-02 06:40:00,
2013-10-02 02:45:00,52.9,51.8,29.88,SSE,158,0.0,2.0,96,0.00,,,0.00,meteohub,2013-10-02 06:45:00,
2013-10-02 02:50:00,52.9,51.8,29.88,SSE,158,1.0,2.0,96,0.00,,,0.00,meteohub,2013-10-02 06:50:00,
2013-10-02 02:55:00,52.9,51.8,29.88,SSE,162,0.0,2.0,96,0.00,,,0.00,meteohub,2013-10-02 06:55:00,
2013-10-02 03:00:00,53.1,52.0,29.88,SW,225,1.0,2.0,96,0.00,,,0.00,meteohub,2013-10-02 07:00:00,
2013-10-02 03:05:00,53.1,51.6,29.88,SSE,162,1.0,3.0,95,0.00,,,0.00,meteohub,2013-10-02 07:05:00,
2013-10-02 03:10:00,52.9,51.4,29.88,SSE,162,0.0,3.0,95,0.00,,,0.00,meteohub,2013-10-02 07:10:00,
2013-10-02 03:15:00,52.9,51.4,29.88,SSE,162,0.0,3.0,95,0.00,,,0.00,meteohub,2013-10-02 07:15:00,
2013-10-02 03:20:00,52.9,51.4,29.88,WNW,289,0.0,3.0,95,0.00,,,0.00,meteohub,2013-10-02 07:20:00,
2013-10-02 03:25:00,52.5,51.1,29.88,WNW,289,0.0,3.0,95,0.00,,,0.00,meteohub,2013-10-02 07:25:00,
2013-10-02 03:30:00,52.5,51.1,29.88,WNW,295,3.0,3.0,95,0.00,,,0.00,meteohub,2013-10-02 07:30:00,
2013-10-02 03:35:00,52.5,51.1,29.88,NW,304,0.0,3.0,95,0.00,,,0.00,meteohub,2013-10-02 07:35:00,
2013-10-02 03:40:00,52.3,50.7,29.88,WNW,303,0.0,3.0,94,0.00,,,0.00,meteohub,2013-10-02 07:40:00,
2013-10-02 03:45:00,52.2,50.5,29.88,WNW,303,0.0,3.0,94,0.00,,,0.00,meteohub,2013-10-02 07:45:00,
2013-10-02 03:50:00,52.0,50.5,29.88,WNW,303,0.0,1.0,95,0.00,,,0.00,meteohub,2013-10-02 07:50:00,
2013-10-02 03:55:00,52.0,50.5,29.88,WNW,303,0.0,2.0,95,0.00,,,0.00,meteohub,2013-10-02 07:55:00,
2013-10-02 04:00:00,52.2,50.7,29.88,WNW,303,0.0,2.0,95,0.00,,,0.00,meteohub,2013-10-02 08:00:00,
2013-10-02 04:05:00,52.0,50.4,29.88,WNW,303,0.0,2.0,94,0.00,,,0.00,meteohub,2013-10-02 08:05:00,
2013-10-02 04:10:00,51.8,50.4,29.88,WNW,303,0.0,1.0,95,0.00,,,0.00,meteohub,2013-10-02 08:10:00,
2013-10-02 04:15:00,51.6,50.2,29.88,WNW,303,0.0,0.0,95,0.00,,,0.00,meteohub,2013-10-02 08:15:00,
2013-10-02 04:20:00,51.6,50.2,29.88,WNW,303,0.0,0.0,95,0.00,,,0.00,meteohub,2013-10-02 08:20:00,
2013-10-02 04:25:00,51.8,50.4,29.88,ESE,122,0.0,2.0,95,0.00,,,0.00,meteohub,2013-10-02 08:25:00,
2013-10-02 04:30:00,51.6,50.2,29.88,ESE,122,1.0,2.0,95,0.00,,,0.00,meteohub,2013-10-02 08:30:00,
2013-10-02 04:35:00,51.6,50.2,29.88,West,265,2.0,3.0,95,0.00,,,0.00,meteohub,2013-10-02 08:35:00,
2013-10-02 04:40:00,51.6,50.5,29.88,WNW,295,0.0,3.0,96,0.00,,,0.00,meteohub,2013-10-02 08:40:00,
2013-10-02 04:45:00,51.8,50.7,29.88,NNW,335,2.0,3.0,96,0.00,,,0.00,meteohub,2013-10-02 08:45:00,
2013-10-02 04:50:00,51.6,50.2,29.88,ESE,115,2.0,3.0,95,0.00,,,0.00,meteohub,2013-10-02 08:50:00,
2013-10-02 04:55:00,51.4,50.0,29.88,ESE,115,0.0,3.0,95,0.00,,,0.00,meteohub,2013-10-02 08:55:00,
2013-10-02 05:00:00,51.4,50.0,29.88,ESE,114,0.0,3.0,95,0.00,,,0.00,meteohub,2013-10-02 09:00:00,
2013-10-02 05:05:00,51.4,50.0,29.88,NNW,334,1.0,3.0,95,0.01,,,0.01,meteohub,2013-10-02 09:05:00,
2013-10-02 05:10:00,51.6,50.5,29.87,NNW,334,0.0,3.0,96,0.01,,,0.01,meteohub,2013-10-02 09:10:00,
2013-10-02 05:15:00,51.6,50.5,29.87,NNW,343,0.0,3.0,96,0.01,,,0.01,meteohub,2013-10-02 09:15:00,
2013-10-02 05:20:00,51.4,50.4,29.87,NNW,343,0.0,2.0,96,0.01,,,0.01,meteohub,2013-10-02 09:20:00,
2013-10-02 05:25:00,51.4,50.0,29.87,SE,129,0.0,2.0,95,0.01,,,0.01,meteohub,2013-10-02 09:25:00,
2013-10-02 05:30:00,51.4,50.0,29.87,SE,129,0.0,2.0,95,0.01,,,0.01,meteohub,2013-10-02 09:30:00,
2013-10-02 05:35:00,51.3,50.2,29.87,SE,129,0.0,2.0,96,0.01,,,0.01,meteohub,2013-10-02 09:35:00,
2013-10-02 05:40:00,51.3,50.2,29.87,SE,129,0.0,0.0,96,0.01,,,0.01,meteohub,2013-10-02 09:40:00,
2013-10-02 05:45:00,51.3,50.2,29.87,SE,129,1.0,1.0,96,0.01,,,0.01,meteohub,2013-10-02 09:45:00,
2013-10-02 05:50:00,51.3,50.2,29.87,SE,130,0.0,2.0,96,0.01,,,0.01,meteohub,2013-10-02 09:50:00,
2013-10-02 05:55:00,51.3,50.2,29.87,SE,130,0.0,3.0,96,0.01,,,0.01,meteohub,2013-10-02 09:55:00,
2013-10-02 06:00:00,51.3,50.2,29.87,SSW,197,0.0,3.0,96,0.00,,,0.01,meteohub,2013-10-02 10:00:00,
2013-10-02 06:05:00,51.3,49.8,29.87,SSW,197,0.0,3.0,95,0.00,,,0.01,meteohub,2013-10-02 10:05:00,
2013-10-02 06:10:00,51.1,50.0,29.87,SSW,197,0.0,3.0,96,0.00,,,0.01,meteohub,2013-10-02 10:10:00,
2013-10-02 06:15:00,51.1,50.0,29.87,SSW,197,0.0,1.0,96,0.00,,,0.01,meteohub,2013-10-02 10:15:00,
2013-10-02 06:20:00,51.3,50.2,29.87,NNW,334,2.0,3.0,96,0.00,,,0.01,meteohub,2013-10-02 10:20:00,
2013-10-02 06:25:00,51.4,50.5,29.87,ESE,112,0.0,4.0,97,0.00,,,0.01,meteohub,2013-10-02 10:25:00,
2013-10-02 06:30:00,51.3,50.2,29.86,ESE,112,0.0,4.0,96,0.00,,,0.01,meteohub,2013-10-02 10:30:00,
2013-10-02 06:35:00,51.3,50.2,29.86,ESE,112,0.0,3.0,96,0.00,,,0.01,meteohub,2013-10-02 10:35:00,
2013-10-02 06:40:00,51.4,50.4,29.86,SW,221,0.0,3.0,96,0.00,,,0.01,meteohub,2013-10-02 10:40:00,
2013-10-02 06:45:00,51.4,50.4,29.86,SW,220,0.0,3.0,96,0.00,,,0.01,meteohub,2013-10-02 10:45:00,
2013-10-02 06:50:00,51.4,50.4,29.86,SW,220,0.0,3.0,96,0.00,,,0.01,meteohub,2013-10-02 10:50:00,
2013-10-02 06:55:00,51.4,50.4,29.86,SW,220,0.0,2.0,96,0.00,,,0.01,meteohub,2013-10-02 10:55:00,
2013-10-02 07:00:00,51.3,50.2,29.87,South,173,1.0,2.0,96,0.00,,,0.01,meteohub,2013-10-02 11:00:00,
2013-10-02 07:05:00,51.3,50.2,29.87,ESE,122,0.0,2.0,96,0.00,,,0.01,meteohub,2013-10-02 11:05:00,
2013-10-02 07:10:00,51.3,50.2,29.87,ESE,122,1.0,5.0,96,0.00,,,0.01,meteohub,2013-10-02 11:10:00,
2013-10-02 07:15:00,51.3,50.4,29.87,ESE,122,0.0,5.0,97,0.00,,,0.01,meteohub,2013-10-02 11:15:00,
2013-10-02 07:20:00,51.4,50.5,29.87,ESE,118,0.0,3.0,97,0.00,,,0.01,meteohub,2013-10-02 11:20:00,
2013-10-02 07:25:00,51.6,50.7,29.87,SE,126,1.0,5.0,97,0.00,,,0.01,meteohub,2013-10-02 11:25:00,
2013-10-02 07:30:00,51.6,50.7,29.86,SE,124,0.0,5.0,97,0.00,,,0.01,meteohub,2013-10-02 11:30:00,
2013-10-02 07:35:00,51.6,50.7,29.86,ESE,122,2.0,5.0,97,0.00,,,0.01,meteohub,2013-10-02 11:35:00,
2013-10-02 07:40:00,52.0,51.1,29.87,ESE,122,0.0,5.0,97,0.00,,,0.01,meteohub,2013-10-02 11:40:00,
2013-10-02 07:45:00,52.2,51.3,29.87,SE,127,0.0,3.0,97,0.00,,,0.01,meteohub,2013-10-02 11:45:00,
2013-10-02 07:50:00,52.3,51.4,29.87,SE,127,0.0,3.0,97,0.00,,,0.01,meteohub,2013-10-02 11:50:00,
2013-10-02 07:55:00,52.7,51.8,29.86,SE,127,0.0,3.0,97,0.00,,,0.01,meteohub,2013-10-02 11:55:00,
2013-10-02 08:00:00,53.2,52.7,29.86,SSE,147,2.0,3.0,98,0.00,,,0.01,meteohub,2013-10-02 12:00:00,
2013-10-02 08:05:00,54.0,53.4,29.86,SE,125,0.0,4.0,98,0.00,,,0.01,meteohub,2013-10-02 12:05:00,
2013-10-02 08:10:00,54.7,54.1,29.86,SE,125,3.0,4.0,98,0.00,,,0.01,meteohub,2013-10-02 12:10:00,
2013-10-02 08:15:00,55.6,55.0,29.87,SE,127,2.0,6.0,98,0.00,,,0.01,meteohub,2013-10-02 12:15:00,
2013-10-02 08:20:00,56.7,56.1,29.87,SE,128,3.0,7.0,98,0.00,,,0.01,meteohub,2013-10-02 12:20:00,
2013-10-02 08:25:00,57.7,57.2,29.87,East,86,3.0,7.0,98,0.00,,,0.01,meteohub,2013-10-02 12:25:00,
2013-10-02 08:30:00,58.8,57.7,29.86,NNE,14,4.0,5.0,96,0.00,,,0.01,meteohub,2013-10-02 12:30:00,
2013-10-02 08:35:00,61.0,57.7,29.87,North,351,0.0,9.0,89,0.00,,,0.01,meteohub,2013-10-02 12:35:00,
2013-10-02 08:40:00,61.7,58.1,29.87,NW,315,1.0,9.0,88,0.00,,,0.01,meteohub,2013-10-02 12:40:00,
2013-10-02 08:45:00,62.1,57.7,29.87,NNW,343,0.0,9.0,86,0.00,,,0.01,meteohub,2013-10-02 12:45:00,
2013-10-02 08:50:00,62.2,58.3,29.87,ESE,117,0.0,3.0,87,0.00,,,0.01,meteohub,2013-10-02 12:50:00,
2013-10-02 08:55:00,62.4,57.9,29.88,NW,310,0.0,3.0,85,0.00,,,0.01,meteohub,2013-10-02 12:55:00,
2013-10-02 09:00:00,62.4,58.1,29.88,NW,310,0.0,4.0,86,0.00,,,0.01,meteohub,2013-10-02 13:00:00,
2013-10-02 09:05:00,62.2,57.9,29.88,NW,310,0.0,4.0,86,0.00,,,0.01,meteohub,2013-10-02 13:05:00,
2013-10-02 09:10:00,62.2,57.9,29.87,NW,310,0.0,2.0,86,0.00,,,0.01,meteohub,2013-10-02 13:10:00,
2013-10-02 09:15:00,62.2,58.6,29.87,NW,310,0.0,2.0,88,0.00,,,0.01,meteohub,2013-10-02 13:15:00,
2013-10-02 09:20:00,62.1,58.1,29.87,ESE,109,0.0,2.0,87,0.00,,,0.01,meteohub,2013-10-02 13:20:00,
2013-10-02 09:25:00,62.1,58.1,29.87,ESE,109,0.0,2.0,87,0.00,,,0.01,meteohub,2013-10-02 13:25:00,
2013-10-02 09:30:00,62.4,58.8,29.87,ESE,123,2.0,2.0,88,0.00,,,0.01,meteohub,2013-10-02 13:30:00,
2013-10-02 09:35:00,63.0,58.5,29.87,SE,132,0.0,3.0,85,0.00,,,0.01,meteohub,2013-10-02 13:35:00,
2013-10-02 09:40:00,63.5,58.6,29.87,ESE,114,0.0,3.0,84,0.00,,,0.01,meteohub,2013-10-02 13:40:00,
2013-10-02 09:45:00,63.9,58.6,29.87,ESE,116,0.0,3.0,83,0.00,,,0.01,meteohub,2013-10-02 13:45:00,
2013-10-02 09:50:00,64.0,59.2,29.87,SE,136,0.0,3.0,84,0.00,,,0.01,meteohub,2013-10-02 13:50:00,
2013-10-02 09:55:00,64.0,58.8,29.87,SE,130,5.0,5.0,83,0.00,,,0.01,meteohub,2013-10-02 13:55:00,
2013-10-02 10:00:00,64.4,58.8,29.87,WSW,255,0.0,6.0,82,0.00,,,0.01,meteohub,2013-10-02 14:00:00,
2013-10-02 10:05:00,64.6,59.0,29.86,NNW,329,1.0,6.0,82,0.00,,,0.01,meteohub,2013-10-02 14:05:00,
2013-10-02 10:11:00,64.9,59.4,29.87,ESE,110,0.0,6.0,82,0.00,,,0.01,meteohub,2013-10-02 14:11:00,
2013-10-02 10:16:00,64.9,59.4,29.87,ESE,111,0.0,3.0,82,0.00,,,0.01,meteohub,2013-10-02 14:16:00,
2013-10-02 10:21:00,65.1,58.8,29.86,ESE,111,0.0,3.0,80,0.00,,,0.01,meteohub,2013-10-02 14:21:00,
2013-10-02 10:26:00,65.8,58.8,29.86,NW,312,2.0,6.0,78,0.00,,,0.01,meteohub,2013-10-02 14:26:00,
2013-10-02 10:31:00,66.6,58.8,29.86,WNW,301,1.0,6.0,76,0.00,,,0.01,meteohub,2013-10-02 14:31:00,
2013-10-02 10:36:00,67.5,59.5,29.86,SE,135,0.0,8.0,76,0.00,,,0.01,meteohub,2013-10-02 14:36:00,
2013-10-02 10:41:00,67.8,59.5,29.86,SE,135,1.0,8.0,75,0.00,,,0.01,meteohub,2013-10-02 14:41:00,
2013-10-02 10:46:00,67.8,59.2,29.86,SSE,154,0.0,7.0,74,0.00,,,0.01,meteohub,2013-10-02 14:46:00,
2013-10-02 10:51:00,67.8,59.5,29.86,NW,322,0.0,6.0,75,0.00,,,0.01,meteohub,2013-10-02 14:51:00,
2013-10-02 10:56:00,67.6,59.7,29.86,WSW,253,0.0,6.0,76,0.00,,,0.01,meteohub,2013-10-02 14:56:00,
2013-10-02 11:01:00,67.3,59.0,29.87,ESE,117,3.0,3.0,75,0.00,,,0.01,meteohub,2013-10-02 15:01:00,
2013-10-02 11:06:00,67.5,58.8,29.86,NW,311,3.0,6.0,74,0.00,,,0.01,meteohub,2013-10-02 15:06:00,
2013-10-02 11:11:00,68.2,58.8,29.86,West,274,2.0,8.0,72,0.00,,,0.01,meteohub,2013-10-02 15:11:00,
2013-10-02 11:16:00,68.5,59.5,29.87,North,353,5.0,15.0,73,0.00,,,0.01,meteohub,2013-10-02 15:16:00,
2013-10-02 11:21:00,68.7,59.7,29.87,NW,307,5.0,15.0,73,0.00,,,0.01,meteohub,2013-10-02 15:21:00,
2013-10-02 11:26:00,68.7,59.4,29.87,NNW,336,5.0,11.0,72,0.00,,,0.01,meteohub,2013-10-02 15:26:00,
2013-10-02 11:31:00,68.9,59.2,29.87,NNW,343,3.0,11.0,71,0.00,,,0.01,meteohub,2013-10-02 15:31:00,
2013-10-02 11:34:00,69.1,59.4,29.87,NNW,348,4.0,11.0,71,0.00,,,0.01,meteohub,2013-10-02 15:34:00,
2013-10-02 11:39:00,69.3,59.9,29.86,NNW,334,5.0,11.0,72,0.00,,,0.01,meteohub,2013-10-02 15:39:00,
2013-10-02 11:44:00,69.3,59.5,29.87,NNW,347,5.0,11.0,71,0.00,,,0.01,meteohub,2013-10-02 15:44:00,
2013-10-02 11:49:00,69.3,59.5,29.87,NW,326,7.0,11.0,71,0.00,,,0.01,meteohub,2013-10-02 15:49:00,
2013-10-02 11:54:00,69.6,59.7,29.87,North,353,0.0,11.0,71,0.00,,,0.01,meteohub,2013-10-02 15:54:00,
2013-10-02 11:59:00,70.0,59.4,29.87,NNW,340,4.0,11.0,69,0.00,,,0.01,meteohub,2013-10-02 15:59:00,
2013-10-02 12:04:00,69.4,59.2,29.87,NNW,343,8.0,14.0,70,0.00,,,0.01,meteohub,2013-10-02 16:04:00,
2013-10-02 12:09:00,69.3,59.5,29.87,NW,308,6.0,14.0,71,0.00,,,0.01,meteohub,2013-10-02 16:09:00,
2013-10-02 12:14:00,69.4,59.5,29.87,NW,313,8.0,15.0,71,0.00,,,0.01,meteohub,2013-10-02 16:14:00,
2013-10-02 12:19:00,69.4,59.2,29.87,NW,305,7.0,15.0,70,0.00,,,0.01,meteohub,2013-10-02 16:19:00,
2013-10-02 12:24:00,69.6,59.7,29.87,West,277,6.0,15.0,71,0.00,,,0.01,meteohub,2013-10-02 16:24:00,
2013-10-02 12:29:00,69.6,59.4,29.87,North,358,0.0,15.0,70,0.00,,,0.01,meteohub,2013-10-02 16:29:00,
2013-10-02 12:34:00,70.0,60.1,29.87,SSE,147,2.0,13.0,71,0.00,,,0.01,meteohub,2013-10-02 16:34:00,
2013-10-02 12:39:00,70.0,59.7,29.86,North,357,2.0,13.0,70,0.00,,,0.01,meteohub,2013-10-02 16:39:00,
2013-10-02 12:44:00,70.0,59.7,29.86,NNW,335,7.0,13.0,70,0.00,,,0.01,meteohub,2013-10-02 16:44:00,
2013-10-02 12:49:00,70.2,60.3,29.87,SSW,195,1.0,13.0,71,0.00,,,0.01,meteohub,2013-10-02 16:49:00,
2013-10-02 12:54:00,70.2,59.9,29.86,NNW,338,5.0,12.0,70,0.00,,,0.01,meteohub,2013-10-02 16:54:00,
2013-10-02 12:59:00,70.0,59.7,29.86,NNE,16,6.0,12.0,70,0.00,,,0.01,meteohub,2013-10-02 16:59:00,
2013-10-02 13:04:00,70.2,60.3,29.86,North,353,2.0,12.0,71,0.00,,,0.01,meteohub,2013-10-02 17:04:00,
2013-10-02 13:09:00,70.3,60.1,29.86,North,353,2.0,12.0,70,0.00,,,0.01,meteohub,2013-10-02 17:09:00,
2013-10-02 13:14:00,70.3,60.1,29.86,WNW,291,3.0,12.0,70,0.00,,,0.01,meteohub,2013-10-02 17:14:00,
2013-10-02 13:19:00,70.2,60.3,29.86,WNW,299,5.0,7.0,71,0.00,,,0.01,meteohub,2013-10-02 17:19:00,
2013-10-02 13:24:00,70.0,60.1,29.86,North,2,5.0,9.0,71,0.00,,,0.01,meteohub,2013-10-02 17:24:00,
2013-10-02 13:29:00,69.8,60.4,29.86,NNW,343,2.0,9.0,72,0.00,,,0.01,meteohub,2013-10-02 17:29:00,
2013-10-02 13:34:00,70.0,60.6,29.86,NW,310,2.0,9.0,72,0.00,,,0.01,meteohub,2013-10-02 17:34:00,
2013-10-02 13:39:00,70.0,60.1,29.85,NNW,345,3.0,8.0,71,0.00,,,0.01,meteohub,2013-10-02 17:39:00,
2013-10-02 13:44:00,70.2,60.3,29.85,NNW,339,5.0,8.0,71,0.00,,,0.01,meteohub,2013-10-02 17:44:00,
2013-10-02 13:49:00,70.3,59.7,29.86,NNW,330,3.0,9.0,69,0.00,,,0.01,meteohub,2013-10-02 17:49:00,
2013-10-02 13:54:00,70.3,59.7,29.85,NNW,327,6.0,11.0,69,0.00,,,0.01,meteohub,2013-10-02 17:54:00,
2013-10-02 13:59:00,70.5,59.9,29.85,NNW,330,6.0,11.0,69,0.00,,,0.01,meteohub,2013-10-02 17:59:00,
2013-10-02 14:04:00,70.9,60.3,29.85,West,263,5.0,12.0,69,0.00,,,0.01,meteohub,2013-10-02 18:04:00,
2013-10-02 14:09:00,71.1,60.4,29.85,North,352,1.0,12.0,69,0.00,,,0.01,meteohub,2013-10-02 18:09:00,
2013-10-02 14:14:00,71.2,60.1,29.85,NW,326,6.0,12.0,68,0.00,,,0.01,meteohub,2013-10-02 18:14:00,
2013-10-02 14:19:00,71.2,60.1,29.85,North,355,2.0,9.0,68,0.00,,,0.01,meteohub,2013-10-02 18:19:00,
2013-10-02 14:24:00,71.4,60.3,29.85,NW,325,6.0,8.0,68,0.00,,,0.01,meteohub,2013-10-02 18:24:00,
2013-10-02 14:29:00,71.6,60.4,29.85,North,352,2.0,10.0,68,0.00,,,0.01,meteohub,2013-10-02 18:29:00,
2013-10-02 14:34:00,71.8,60.3,29.85,North,349,3.0,10.0,67,0.00,,,0.01,meteohub,2013-10-02 18:34:00,
2013-10-02 14:39:00,71.6,60.1,29.85,NNW,335,5.0,10.0,67,0.00,,,0.01,meteohub,2013-10-02 18:39:00,
2013-10-02 14:44:00,71.6,60.1,29.85,NW,305,5.0,9.0,67,0.00,,,0.01,meteohub,2013-10-02 18:44:00,
2013-10-02 14:49:00,71.2,59.7,29.85,NNW,346,3.0,9.0,67,0.00,,,0.01,meteohub,2013-10-02 18:49:00,
2013-10-02 14:54:00,71.1,59.5,29.85,West,263,5.0,11.0,67,0.00,,,0.01,meteohub,2013-10-02 18:54:00,
2013-10-02 14:59:00,71.2,60.1,29.85,NNW,334,4.0,11.0,68,0.00,,,0.01,meteohub,2013-10-02 18:59:00,
2013-10-02 15:04:00,71.6,60.4,29.84,NW,305,2.0,11.0,68,0.00,,,0.01,meteohub,2013-10-02 19:04:00,
2013-10-02 15:09:00,71.8,60.3,29.84,NNW,342,0.0,9.0,67,0.00,,,0.01,meteohub,2013-10-02 19:09:00,
2013-10-02 15:14:00,72.0,60.4,29.85,SE,124,1.0,9.0,67,0.00,,,0.01,meteohub,2013-10-02 19:14:00,
2013-10-02 15:19:00,72.7,60.3,29.85,NW,312,3.0,8.0,65,0.00,,,0.01,meteohub,2013-10-02 19:19:00,
2013-10-02 15:24:00,72.9,60.4,29.85,West,270,2.0,8.0,65,0.00,,,0.01,meteohub,2013-10-02 19:24:00,
2013-10-02 15:29:00,72.9,60.4,29.84,ESE,121,2.0,9.0,65,0.00,,,0.01,meteohub,2013-10-02 19:29:00,
2013-10-02 15:34:00,73.0,60.1,29.84,North,6,4.0,9.0,64,0.00,,,0.01,meteohub,2013-10-02 19:34:00,
2013-10-02 15:39:00,72.9,59.9,29.84,NNW,330,3.0,9.0,64,0.00,,,0.01,meteohub,2013-10-02 19:39:00,
2013-10-02 15:44:00,72.7,59.7,29.84,NW,322,6.0,10.0,64,0.00,,,0.01,meteohub,2013-10-02 19:44:00,
2013-10-02 15:49:00,72.3,59.0,29.84,NNW,329,2.0,10.0,63,0.00,,,0.01,meteohub,2013-10-02 19:49:00,
2013-10-02 15:54:00,72.7,59.7,29.84,East,96,0.0,10.0,64,0.00,,,0.01,meteohub,2013-10-02 19:54:00,
2013-10-02 15:59:00,72.9,59.9,29.84,NNW,328,4.0,8.0,64,0.00,,,0.01,meteohub,2013-10-02 19:59:00,
2013-10-02 16:04:00,72.9,59.5,29.84,NNW,347,3.0,8.0,63,0.00,,,0.01,meteohub,2013-10-02 20:04:00,
2013-10-02 16:09:00,72.9,59.9,29.83,NE,48,8.0,8.0,64,0.00,,,0.01,meteohub,2013-10-02 20:09:00,
2013-10-02 16:14:00,72.7,60.3,29.84,WNW,301,4.0,10.0,65,0.00,,,0.01,meteohub,2013-10-02 20:14:00,
2013-10-02 16:19:00,72.9,60.8,29.84,NNW,337,0.0,10.0,66,0.00,,,0.01,meteohub,2013-10-02 20:19:00,
2013-10-02 16:24:00,73.0,60.1,29.84,NNW,327,0.0,10.0,64,0.00,,,0.01,meteohub,2013-10-02 20:24:00,
2013-10-02 16:29:00,73.2,60.3,29.83,NNW,343,4.0,10.0,64,0.00,,,0.01,meteohub,2013-10-02 20:29:00,
2013-10-02 16:34:00,73.0,60.1,29.83,SE,124,6.0,10.0,64,0.00,,,0.01,meteohub,2013-10-02 20:34:00,
2013-10-02 16:39:00,73.2,60.3,29.83,NW,304,2.0,10.0,64,0.00,,,0.01,meteohub,2013-10-02 20:39:00,
2013-10-02 16:44:00,73.2,60.8,29.83,NNE,17,1.0,9.0,65,0.00,,,0.01,meteohub,2013-10-02 20:44:00,
2013-10-02 16:49:00,73.2,60.8,29.83,NNW,345,5.0,9.0,65,0.00,,,0.01,meteohub,2013-10-02 20:49:00,
2013-10-02 16:54:00,73.0,61.0,29.84,WNW,296,2.0,7.0,66,0.00,,,0.01,meteohub,2013-10-02 20:54:00,
2013-10-02 16:59:00,72.7,60.6,29.84,ENE,71,0.0,7.0,66,0.00,,,0.01,meteohub,2013-10-02 20:59:00,
2013-10-02 17:04:00,72.5,61.3,29.84,ESE,108,0.0,8.0,68,0.00,,,0.01,meteohub,2013-10-02 21:04:00,
2013-10-02 17:09:00,72.1,61.0,29.84,East,89,0.0,8.0,68,0.00,,,0.01,meteohub,2013-10-02 21:09:00,
2013-10-02 17:14:00,72.1,61.3,29.84,East,89,0.0,6.0,69,0.00,,,0.01,meteohub,2013-10-02 21:14:00,
2013-10-02 17:19:00,71.8,61.9,29.84,East,98,0.0,4.0,71,0.00,,,0.01,meteohub,2013-10-02 21:19:00,
2013-10-02 17:24:00,71.2,61.7,29.84,NNW,338,0.0,2.0,72,0.00,,,0.01,meteohub,2013-10-02 21:24:00,
2013-10-02 17:29:00,71.1,60.8,29.84,NNW,344,0.0,2.0,70,0.00,,,0.01,meteohub,2013-10-02 21:29:00,
2013-10-02 17:34:00,70.9,61.0,29.84,SE,141,0.0,3.0,71,0.00,,,0.01,meteohub,2013-10-02 21:34:00,
2013-10-02 17:39:00,70.9,61.0,29.84,East,97,0.0,3.0,71,0.00,,,0.01,meteohub,2013-10-02 21:39:00,
2013-10-02 17:44:00,70.7,61.2,29.85,East,90,0.0,3.0,72,0.00,,,0.01,meteohub,2013-10-02 21:44:00,
2013-10-02 17:49:00,70.5,61.5,29.85,East,90,0.0,3.0,73,0.00,,,0.01,meteohub,2013-10-02 21:49:00,
2013-10-02 17:54:00,70.3,61.3,29.85,East,90,0.0,3.0,73,0.00,,,0.01,meteohub,2013-10-02 21:54:00,
2013-10-02 17:59:00,70.0,61.3,29.85,ESE,118,0.0,3.0,74,0.00,,,0.01,meteohub,2013-10-02 21:59:00,
2013-10-02 18:04:00,69.6,61.3,29.85,ESE,118,0.0,3.0,75,0.00,,,0.01,meteohub,2013-10-02 22:04:00,
2013-10-02 18:09:00,69.3,61.3,29.85,ESE,117,2.0,3.0,76,0.00,,,0.01,meteohub,2013-10-02 22:09:00,
2013-10-02 18:14:00,68.4,61.2,29.85,North,3,0.0,3.0,78,0.00,,,0.01,meteohub,2013-10-02 22:14:00,
2013-10-02 18:19:00,67.8,61.3,29.85,North,3,0.0,3.0,80,0.00,,,0.01,meteohub,2013-10-02 22:19:00,
2013-10-02 18:24:00,67.3,61.5,29.85,North,3,0.0,3.0,82,0.00,,,0.01,meteohub,2013-10-02 22:24:00,
2013-10-02 18:29:00,66.7,61.0,29.85,North,3,0.0,2.0,82,0.00,,,0.01,meteohub,2013-10-02 22:29:00,
2013-10-02 18:34:00,66.4,61.0,29.86,North,3,0.0,1.0,83,0.00,,,0.01,meteohub,2013-10-02 22:34:00,
2013-10-02 18:39:00,65.8,60.8,29.86,North,3,0.0,1.0,84,0.00,,,0.01,meteohub,2013-10-02 22:39:00,
2013-10-02 18:44:00,65.5,60.8,29.86,North,5,0.0,1.0,85,0.00,,,0.01,meteohub,2013-10-02 22:44:00,
2013-10-02 18:49:00,65.1,60.4,29.86,North,5,0.0,1.0,85,0.00,,,0.01,meteohub,2013-10-02 22:49:00,
2013-10-02 18:54:00,64.8,60.4,29.86,North,5,0.0,1.0,86,0.00,,,0.01,meteohub,2013-10-02 22:54:00,
2013-10-02 18:59:00,64.2,60.3,29.86,North,5,0.0,1.0,87,0.00,,,0.01,meteohub,2013-10-02 22:59:00,
2013-10-02 19:04:00,63.9,59.9,29.86,North,5,1.0,2.0,87,0.00,,,0.01,meteohub,2013-10-02 23:04:00,
2013-10-02 19:09:00,63.7,60.1,29.87,East,99,0.0,2.0,88,0.00,,,0.01,meteohub,2013-10-02 23:09:00,
2013-10-02 19:14:00,63.3,59.7,29.87,NNW,330,0.0,2.0,88,0.00,,,0.01,meteohub,2013-10-02 23:14:00,
2013-10-02 19:19:00,63.0,59.7,29.87,NNW,332,0.0,3.0,89,0.00,,,0.01,meteohub,2013-10-02 23:19:00,
2013-10-02 19:24:00,62.4,59.2,29.87,NNW,332,0.0,3.0,89,0.00,,,0.01,meteohub,2013-10-02 23:24:00,
2013-10-02 19:29:00,62.2,59.0,29.87,NNW,332,0.0,3.0,89,0.00,,,0.01,meteohub,2013-10-02 23:29:00,
2013-10-02 19:34:00,61.9,59.0,29.87,NNW,332,0.0,2.0,90,0.00,,,0.01,meteohub,2013-10-02 23:34:00,
2013-10-02 19:39:00,61.5,58.6,29.87,SE,133,0.0,2.0,90,0.00,,,0.01,meteohub,2013-10-02 23:39:00,
2013-10-02 19:44:00,61.3,58.5,29.88,SE,133,1.0,2.0,90,0.00,,,0.01,meteohub,2013-10-02 23:44:00,
2013-10-02 19:49:00,61.2,58.3,29.88,SE,133,0.0,2.0,90,0.00,,,0.01,meteohub,2013-10-02 23:49:00,
2013-10-02 19:50:00,61.2,58.3,29.88,SE,133,0.0,2.0,90,0.00,,,0.01,meteohub,2013-10-02 23:50:00,
2013-10-02 19:55:00,61.0,58.3,29.88,SE,133,0.0,2.0,91,0.00,,,0.01,meteohub,2013-10-02 23:55:00,
2013-10-02 20:00:00,60.8,58.1,29.88,SE,133,0.0,2.0,91,0.00,,,0.01,meteohub,2013-10-03 00:00:00,
2013-10-02 20:05:00,60.6,57.9,29.89,ENE,68,1.0,2.0,91,0.00,,,0.01,meteohub,2013-10-03 00:05:00,
2013-10-02 20:10:00,60.4,58.1,29.89,East,81,2.0,3.0,92,0.00,,,0.01,meteohub,2013-10-03 00:10:00,
2013-10-02 20:15:00,60.3,57.9,29.89,NW,325,0.0,5.0,92,0.00,,,0.01,meteohub,2013-10-03 00:15:00,
2013-10-02 20:20:00,60.1,57.7,29.90,NNW,332,0.0,5.0,92,0.00,,,0.01,meteohub,2013-10-03 00:20:00,
2013-10-02 20:25:00,59.9,57.6,29.90,NNW,332,0.0,5.0,92,0.00,,,0.01,meteohub,2013-10-03 00:25:00,
2013-10-02 20:30:00,59.7,57.4,29.90,NNW,332,0.0,2.0,92,0.00,,,0.01,meteohub,2013-10-03 00:30:00,
2013-10-02 20:35:00,59.5,57.2,29.90,NNW,330,1.0,3.0,92,0.00,,,0.01,meteohub,2013-10-03 00:35:00,
2013-10-02 20:40:00,59.4,57.0,29.90,NNW,330,0.0,3.0,92,0.00,,,0.01,meteohub,2013-10-03 00:40:00,
2013-10-02 20:45:00,59.2,56.8,29.90,NNW,330,0.0,3.0,92,0.00,,,0.01,meteohub,2013-10-03 00:45:00,
2013-10-02 20:50:00,58.8,56.5,29.90,NNW,330,1.0,3.0,92,0.00,,,0.01,meteohub,2013-10-03 00:50:00,
2013-10-02 20:55:00,58.6,56.3,29.91,East,87,1.0,2.0,92,0.00,,,0.01,meteohub,2013-10-03 00:55:00,
2013-10-02 21:00:00,58.6,56.7,29.91,East,87,1.0,2.0,93,0.00,,,0.01,meteohub,2013-10-03 01:00:00,
2013-10-02 21:05:00,58.5,56.1,29.92,East,87,1.0,2.0,92,0.00,,,0.01,meteohub,2013-10-03 01:05:00,
2013-10-02 21:10:00,58.5,56.5,29.92,North,357,2.0,2.0,93,0.00,,,0.01,meteohub,2013-10-03 01:10:00,
2013-10-02 21:15:00,58.3,56.3,29.92,NNW,338,0.0,3.0,93,0.00,,,0.01,meteohub,2013-10-03 01:15:00,
2013-10-02 21:20:00,58.3,55.9,29.92,NNW,338,1.0,3.0,92,0.00,,,0.01,meteohub,2013-10-03 01:20:00,
2013-10-02 21:25:00,57.9,55.6,29.92,NNW,338,0.0,3.0,92,0.00,,,0.01,meteohub,2013-10-03 01:25:00,
2013-10-02 21:30:00,57.7,55.4,29.92,NNW,338,0.0,3.0,92,0.00,,,0.01,meteohub,2013-10-03 01:30:00,
2013-10-02 21:35:00,57.6,55.2,29.92,East,84,0.0,3.0,92,0.00,,,0.01,meteohub,2013-10-03 01:35:00,
2013-10-02 21:40:00,57.4,55.0,29.92,East,84,1.0,2.0,92,0.00,,,0.01,meteohub,2013-10-03 01:40:00,
2013-10-02 21:45:00,57.2,54.9,29.93,East,87,0.0,2.0,92,0.00,,,0.01,meteohub,2013-10-03 01:45:00,
2013-10-02 21:50:00,57.0,54.7,29.93,East,87,0.0,2.0,92,0.00,,,0.01,meteohub,2013-10-03 01:50:00,
2013-10-02 21:55:00,57.0,54.7,29.93,East,87,0.0,2.0,92,0.00,,,0.01,meteohub,2013-10-03 01:55:00,
2013-10-02 22:00:00,57.0,54.7,29.93,East,87,0.0,2.0,92,0.00,,,0.01,meteohub,2013-10-03 02:00:00,
2013-10-02 22:05:00,56.8,54.0,29.94,East,87,0.0,1.0,90,0.00,,,0.01,meteohub,2013-10-03 02:05:00,
2013-10-02 22:10:00,56.8,54.3,29.94,East,87,0.0,1.0,91,0.00,,,0.01,meteohub,2013-10-03 02:10:00,
2013-10-02 22:15:00,56.8,54.5,29.94,NNE,13,0.0,1.0,92,0.00,,,0.01,meteohub,2013-10-03 02:15:00,
2013-10-02 22:20:00,56.8,54.3,29.94,NNE,13,0.0,3.0,91,0.00,,,0.01,meteohub,2013-10-03 02:20:00,
2013-10-02 22:25:00,56.8,54.0,29.94,NNE,13,0.0,3.0,90,0.00,,,0.01,meteohub,2013-10-03 02:25:00,
2013-10-02 22:30:00,56.7,53.8,29.94,NNE,21,0.0,1.0,90,0.00,,,0.01,meteohub,2013-10-03 02:30:00,
2013-10-02 22:35:00,56.5,53.6,29.94,ESE,116,0.0,3.0,90,0.00,,,0.01,meteohub,2013-10-03 02:35:00,
2013-10-02 22:40:00,56.3,53.8,29.94,ESE,116,1.0,3.0,91,0.00,,,0.01,meteohub,2013-10-03 02:40:00,
2013-10-02 22:45:00,56.3,54.0,29.95,ESE,118,0.0,3.0,92,0.00,,,0.01,meteohub,2013-10-03 02:45:00,
2013-10-02 22:50:00,56.1,53.8,29.95,ESE,118,0.0,3.0,92,0.00,,,0.01,meteohub,2013-10-03 02:50:00,
2013-10-02 22:55:00,56.1,53.8,29.95,ESE,118,0.0,3.0,92,0.00,,,0.01,meteohub,2013-10-03 02:55:00,
2013-10-02 23:00:00,56.1,53.2,29.95,ESE,118,0.0,1.0,90,0.00,,,0.01,meteohub,2013-10-03 03:00:00,
2013-10-02 23:05:00,56.1,53.2,29.95,NNE,13,0.0,1.0,90,0.00,,,0.01,meteohub,2013-10-03 03:05:00,
2013-10-02 23:10:00,56.3,54.0,29.96,North,1,0.0,3.0,92,0.00,,,0.01,meteohub,2013-10-03 03:10:00,
2013-10-02 23:15:00,56.3,53.4,29.95,North,5,0.0,3.0,90,0.00,,,0.01,meteohub,2013-10-03 03:15:00,
2013-10-02 23:20:00,56.1,53.2,29.95,SE,128,1.0,3.0,90,0.00,,,0.01,meteohub,2013-10-03 03:20:00,
2013-10-02 23:25:00,56.1,53.6,29.96,SE,128,2.0,2.0,91,0.00,,,0.01,meteohub,2013-10-03 03:25:00,
2013-10-02 23:30:00,55.9,53.4,29.96,SE,128,2.0,5.0,91,0.00,,,0.01,meteohub,2013-10-03 03:30:00,
2013-10-02 23:35:00,55.9,53.1,29.96,SE,128,0.0,5.0,90,0.00,,,0.01,meteohub,2013-10-03 03:35:00,
2013-10-02 23:40:00,55.9,53.1,29.96,SE,128,1.0,5.0,90,0.00,,,0.01,meteohub,2013-10-03 03:40:00,
2013-10-02 23:45:00,56.1,53.2,29.96,ESE,110,0.0,3.0,90,0.00,,,0.01,meteohub,2013-10-03 03:45:00,
2013-10-02 23:50:00,56.3,53.4,29.96,SSE,160,0.0,3.0,90,0.00,,,0.01,meteohub,2013-10-03 03:50:00,
2013-10-02 23:55:00,56.5,53.6,29.96,SSE,160,0.0,3.0,90,0.00,,,0.01,meteohub,2013-10-03 03:55:00,